This is the latest recevied weather packets stored in our database for station/object KC9EGS. If no packets are shown the sender has not sent any weather packets the latest 10 day(s).
| Time | Temp. | Humidity | Pressure | Rain* | Wind** | Luminosity | Snow |
|---|---|---|---|---|---|---|---|
| 1778022924 | 6.67° C | 44% | 1005.4 hPa | 0 mm | - | - | - |
| 1778022324 | 6.11° C | 45% | 1005.5 hPa | 0 mm | - | - | - |
| 1778022107 | 6.11° C | 44% | 1005.5 hPa | 0 mm | - | - | - |
| 1778021723 | 6.11° C | 44% | 1005.6 hPa | 0 mm | - | - | - |
| 1778021206 | 6.11° C | 45% | 1005.6 hPa | 0 mm | - | - | - |
| 1778020523 | 6.11° C | 44% | 1005.8 hPa | 0 mm | - | - | - |
| 1778020306 | 6.11° C | 43% | 1005.8 hPa | 0 mm | - | - | - |
| 1778019925 | 6.11° C | 42% | 1005.6 hPa | 0 mm | - | - | - |
| 1778019406 | 6.11° C | 44% | 1005.6 hPa | 0 mm | - | - | - |
| 1778018726 | 6.11° C | 44% | 1005.6 hPa | 0 mm | - | - | - |
| 1778018506 | 6.11° C | 44% | 1005.6 hPa | 0 mm | - | - | - |
| 1778018124 | 6.11° C | 43% | 1005.6 hPa | 0 mm | - | - | - |
| 1778017605 | 6.11° C | 46% | 1005.6 hPa | 0 mm | - | - | - |
| 1778017523 | 6.11° C | 44% | 1005.6 hPa | 0 mm | - | - | - |
| 1778016924 | 6.11° C | 44% | 1005.6 hPa | 0 mm | - | - | - |
| 1778016706 | 6.11° C | 43% | 1005.6 hPa | 0 mm | - | - | - |
| 1778016323 | 6.11° C | 42% | 1005.5 hPa | 0 mm | - | - | - |
| 1778015807 | 6.11° C | 43% | 1005.5 hPa | 0 mm | - | - | - |
| 1778015123 | 6.11° C | 42% | 1005.4 hPa | 0 mm | - | - | - |
| 1778014907 | 6.11° C | 43% | 1005.4 hPa | 0 mm | - | - | - |
| 1778014006 | 6.11° C | 45% | 1005.2 hPa | 0 mm | - | - | - |
| 1778013925 | 6.11° C | 43% | 1005.2 hPa | 0 mm | - | - | - |
| 1778013106 | 6.11° C | 43% | 1005.3 hPa | 0 mm | - | - | - |
| 1778012723 | 6.11° C | 43% | 1005.3 hPa | 0 mm | - | - | - |
| 1778012206 | 6.11° C | 44% | 1005.3 hPa | 0 mm | - | - | - |
* Rain latest hour (hover to see other rain measurements)
** Current wind speed in m/s (hover to see current wind gust speed)